Flag for Antigua and Barbuda Weather past 2 weeks in Saint John's, Antigua and Barbuda

Now
82 °F

Partly sunny.


Feels Like: 87 °F
Forecast: 80 / 85 °F
Wind: 14 mph from East

Location: Vc Bird International Antigua Airport

Current Time: Jul 22, 2014 at 7:54:10 AM

Latest Report: Jul 22, 2014 at 7:00 AM


Visibility: N/A

Pressure: 30.04 "Hg

Humidity: 70%

Dew point: 72 °F

Location of Saint John'sLocation

Historic Weather in Saint John's — Graph

°F

Saint John's temperature yesterday

Maximum temperature yesterday: 86 °F (at 10:00 AM)
Minimum temperature yesterday: 81 °F (at 12:00 AM)
Average temperature yesterday: 83 °F

Past Weeks' High & Low Weather Summary

 TemperatureHumidityPressure
High88 °F (Jul 8, 12:00 PM)94% (Jul 14, 6:00 PM)30.12 "Hg (Jul 14, 6:00 PM)
Low75 °F (Jul 14, 6:00 PM)55% (Jul 9, 12:00 PM)30.01 "Hg (Jul 12, 5:00 PM)
Average82 °F72%30.07 "Hg
* Reported Jul 7 6:00 AM — Jul 22 6:00 AM, Saint John's, Weather by CustomWeather, © 2014

Note: Actual official high and low records may vary slightly from our data, if they occured in-between our weather recording intervals... More about our weather records

Advertising

Saint John's weather history for previous 24 hours

 ConditionsComfort  
Time TempWeatherWind HumidityBarometerVisibility
6:00 AM
Jul 22
81 °FPartly sunny.9 mph79%30.04 "HgN/A
5:00 AM81 °FSprinkles. Passing clouds.14 mph79%30.04 "HgN/A
4:00 AM81 °FPassing clouds.10 mph74%30.01 "HgN/A
3:00 AM81 °FPassing clouds.12 mph74%30.01 "HgN/A
2:00 AM81 °FPartly cloudy.12 mph74%30.04 "HgN/A
1:00 AM81 °FPassing clouds.13 mph74%30.04 "HgN/A
12:00 AM81 °FPassing clouds.13 mph70%30.04 "HgN/A
11:00 PM
Jul 21
81 °FThunderstorms. Partly cloudy.12 mph70%30.07 "HgN/A
10:00 PM81 °FPassing clouds.13 mph70%30.07 "HgN/A
9:00 PM81 °FPassing clouds.14 mph70%30.07 "HgN/A
8:00 PM81 °FPassing clouds.12 mph70%30.04 "HgN/A
7:00 PM81 °FPassing clouds.10 mph70%30.04 "HgN/A
6:00 PM82 °FPassing clouds.10 mph62%30.04 "HgN/A
5:00 PM84 °FScattered clouds.12 mph62%30.01 "HgN/A
4:00 PM84 °FScattered clouds.13 mph58%30.04 "HgN/A
3:00 PM86 °FScattered clouds.12 mph55%30.04 "HgN/A
2:00 PM86 °FScattered clouds.13 mph59%30.04 "HgN/A
1:00 PM86 °FScattered clouds.14 mph59%30.07 "HgN/A
12:00 PM86 °FScattered clouds.13 mph59%30.07 "HgN/A
11:00 AM86 °FPassing clouds.14 mph59%30.09 "HgN/A
10:00 AM86 °FScattered clouds.13 mph62%30.09 "HgN/A
9:00 AM84 °FPassing clouds.13 mph62%30.09 "HgN/A
8:00 AM84 °FScattered clouds.12 mph62%30.09 "HgN/A
7:00 AM81 °FScattered clouds.12 mph66%30.07 "HgN/A
Weather by CustomWeather, © 2014

See weather overviewHow to use our weather pages